User: anonymous
Location: Meriden
(44.0740°N, 93.3870°W)
Time: 05:06:22
(UTC-05:00)
Language:

AO-27 - Orbit

View from above orbital plane
View from above orbital plane
View from above satellite
View from above satellite

Ground track
Ground track

The orbit data is extracted from the following two-line orbital elements,

1 22825U 93061C   14108.07462071  .00000214  00000-0  10049-3 0  6440
2 22825 098.6571 054.4928 0009595 112.7626 306.4714 14.29700502 72196
Epoch (UTC): 18 April 2014 01:47:27
Eccentricity: 0.0009595
inclination: 98.6571°
perigee height: 786 km
apogee height: 799 km
right ascension of ascending node: 54.4928°
argument of perigee: 112.7626°
revolutions per day: 14.29700502
mean anomaly at epoch: 306.4714°
orbit number at epoch: 7219

The dashed part of the orbit path shows where the satellite is in the earth's shadow,  

DLR